User: anonymous   Login
Location: Ciserano
(45.5833°N, 9.6000°E)
Time: 09:18:15
(UTC+00:00)
Language:

deb Kosmos-1375 - Orbit

View from above orbital plane
View from above orbital plane
View from above satellite
View from above satellite

Ground track
Ground track

The orbit data is extracted from the following two-line orbital elements,

1 16378U 82055S   21166.91857104 -.00000037  00000-0  42200-4 0  9999
2 16378  65.8333 334.7080 0035740 337.0012 178.2823 13.80958612795965
Epoch (UTC): 15 June 2021 22:02:44
Eccentricity: 0.0035740
inclination: 65.8333°
perigee height: 934 km
apogee height: 987 km
right ascension of ascending node: 334.7080°
argument of perigee: 337.0012°
revolutions per day: 13.80958612
mean anomaly at epoch: 178.2823°
orbit number at epoch: 79596

The dashed part of the orbit path shows where the satellite is in the earth's shadow,  

DLR